Torna al catalogo

STARLINK-32750

AttivoComunicazioniVLEO
NORAD 62572·PAYLOAD·🇺🇸 United States

Lanciato Jan 10, 2025 da Cape Canaveral Space Force Station

Loading…

Prossimi Passaggi (prossime 24 ore)

TLE

AggiornatoSource: CelesTrak SupGP

Epoca: Sep 14, 2026, 14:43 UTC

1 62572C 25006U   26257.61368056  .00055553  00000+0  20125-2 0  2573
2 62572  43.0006 305.2405 0001430 274.1816 336.9364 15.27543777    16

Traccia STARLINK-32750 in tempo reale con AllMySat

Download on the App Store